Location: Newark
(10.9667°N, 4.8167°W)
Time: 21:18:25
(UTC+00:00)

ISS - Visible Passes

Search period start: 09 December 2019 00:00
Search period end: 19 December 2019 00:00
Orbit: 411 x 421 km, 51.6° (Epoch: 10 December)

Date Brightness Start Highest point End Pass type
(mag) Time Alt. Az. Time Alt. Az. Time Alt. Az.
12 Dec -3.8 19:06:58 10° NNW 19:10:15 56° NE 19:10:47 48° E visible
13 Dec -2.6 18:19:00 10° N 18:21:45 24° NE 18:24:32 10° ESE visible
13 Dec -0.3 19:57:03 10° WSW 19:58:16 12° SW 19:59:30 10° SW visible
14 Dec -1.3 19:06:59 10° WNW 19:09:50 25° SW 19:12:40 10° S visible
15 Dec -3.2 18:18:04 10° NW 18:21:22 63° SW 18:24:41 10° SSE visible
17 Dec -0.2 18:19:13 10° W 18:20:51 13° SW 18:22:30 10° SSW visible
18 Dec -2.1 05:58:22 10° SSW 06:01:29 39° SE 06:04:36 10° NE visible
